QPF
0.08 0.08 0.08 0.07 0.04 0.03 0.04 0.03 0.03 0.03 0.02 0.02 0.01 0.01 0.01 0.01 0.01 0.02 0.02 0.01 0.01 0.01 0.01 0.02 0.02 0.01 0.01 0.01 0.01 0.01 0.01 0.02 0.02 0.02 0.03 0.02 0.01 0.02 0.02 0.01 0.01 0.01 0.02
0.07 0.07 0.07 0.06 0.03 0.03 0.04 0.02 0.02 0.04 0.03 0.02 0.02 0.01 0.02 0.02 0.01 0.01 0.02 0.01 0.01 0.01 0.02 0.03 0.02 0.02 0.01 0.01 0.01 0.01 0.02 0.02 0.02 0.02 0.02 0.01 0.02 0.02 0.02 0.01 0.01 0.01 0.01
0.04 0.05 0.04 0.05 0.04 0.03 0.02 0.02 0.03 0.03 0.03 0.03 0.03 0.02 0.03 0.04 0.03 0.02 0.03 0.03 0.02 0.01 0.01 0.02 0.02 0.01 0.01 0.01 0.01 0.02 0.02 0.03 0.02 0.01 0.01 0.01 0.02 0.02 0.02 0.01 0.01 0.02 0.02
0.03 0.05 0.05 0.03 0.02 0.02 0.02 0.03 0.04 0.04 0.04 0.04 0.03 0.03 0.02 0.04 0.03 0.03 0.03 0.04 0.05 0.03 0.01 0.01 0.01 0.01 0.01 0.01 0.01 0.02 0.02 0.02 0.01 0.01 0.01 0.01 0.01 0.01 0.01 0.01 0.02 0.02 0.01
0.02 0.03 0.05 0.05 0.03 0.03 0.03 0.03 0.05 0.04 0.05 0.05 0.03 0.03 0.02 0.03 0.03 0.03 0.03 0.03 0.04 0.03 0.04 0.02 0.01 0.01 0.00 0.01 0.01 0.01 0.01 0.01 0.01 0.00 0.00 0.00 0.00 0.00 0.00 0.01 0.01 0.01 0.01
0.01 0.03 0.04 0.04 0.04 0.06 0.07 0.06 0.07 0.05 0.04 0.05 0.03 0.03 0.02 0.03 0.03 0.03 0.02 0.03 0.02 0.02 0.04 0.02 0.01 0.01 0.00 0.00 0.01 0.01 0.01 0.03 0.02 0.01 0.01 0.01 0.01 0.01 0.01 0.01 0.01 0.01 0.02
0.02 0.03 0.05 0.05 0.05 0.09 0.11 0.07 0.06 0.08 0.06 0.04 0.07 0.07 0.05 0.03 0.04 0.02 0.02 0.03 0.02 0.02 0.03 0.03 0.03 0.04 0.01 0.01 0.01 0.01 0.02 0.03 0.01 0.01 0.01 0.01 0.01 0.02 0.01 0.01 0.01 0.01 0.02
0.01 0.03 0.06 0.05 0.07 0.09 0.10 0.10 0.10 0.10 0.08 0.05 0.08 0.13 0.15 0.13 0.08 0.02 0.03 0.03 0.03 0.02 0.03 0.04 0.04 0.06 0.04 0.02 0.02 0.01 0.02 0.02 0.01 0.01 0.01 0.01 0.02 0.02 0.01 0.01 0.01 0.01 0.01
0.02 0.03 0.04 0.06 0.07 0.07 0.10 0.08 0.09 0.11 0.10 0.08 0.07 0.10 0.16 0.19 0.15 0.09 0.05 0.03 0.02 0.03 0.03 0.04 0.03 0.04 0.04 0.05 0.05 0.01 0.01 0.01 0.01 0.01 0.02 0.02 0.02 0.01 0.01 0.02 0.02 0.02 0.01
0.04 0.03 0.03 0.05 0.06 0.07 0.09 0.06 0.08 0.08 0.07 0.08 0.09 0.08 0.08 0.12 0.15 0.16 0.11 0.06 0.04 0.02 0.02 0.02 0.02 0.03 0.03 0.04 0.05 0.01 0.01 0.01 0.01 0.01 0.01 0.02 0.02 0.02 0.02 0.02 0.02 0.02 0.02
0.04 0.02 0.03 0.04 0.04 0.06 0.07 0.08 0.10 0.08 0.08 0.08 0.09 0.09 0.10 0.11 0.10 0.12 0.13 0.10 0.08 0.03 0.02 0.01 0.02 0.02 0.02 0.03 0.04 0.03 0.02 0.01 0.01 0.00 0.01 0.01 0.01 0.02 0.03 0.02 0.02 0.02 0.03
0.05 0.04 0.03 0.04 0.04 0.05 0.06 0.07 0.08 0.09 0.10 0.10 0.10 0.08 0.10 0.10 0.11 0.14 0.12 0.11 0.09 0.04 0.02 0.01 0.02 0.02 0.02 0.02 0.03 0.06 0.03 0.01 0.01 0.01 0.01 0.01 0.01 0.02 0.02 0.02 0.02 0.02 0.03
0.05 0.05 0.04 0.05 0.05 0.05 0.05 0.08 0.09 0.10 0.11 0.12 0.10 0.09 0.09 0.08 0.08 0.11 0.09 0.08 0.09 0.05 0.05 0.05 0.05 0.05 0.04 0.04 0.07 0.09 0.04 0.03 0.03 0.03 0.02 0.01 0.01 0.02 0.02 0.02 0.03 0.03 0.04
0.05 0.05 0.05 0.04 0.05 0.04 0.05 0.09 0.08 0.09 0.11 0.10 0.07 0.08 0.08 0.05 0.06 0.07 0.07 0.10 0.10 0.09 0.10 0.07 0.06 0.06 0.07 0.09 0.14 0.14 0.07 0.07 0.05 0.03 0.02 0.02 0.02 0.02 0.02 0.02 0.02 0.03 0.03
0.06 0.06 0.07 0.07 0.07 0.07 0.07 0.08 0.07 0.08 0.09 0.07 0.06 0.09 0.08 0.06 0.06 0.05 0.07 0.10 0.15 0.15 0.14 0.11 0.08 0.06 0.07 0.09 0.15 0.10 0.08 0.07 0.05 0.04 0.03 0.02 0.02 0.02 0.02 0.02 0.02 0.02 0.02
0.07 0.07 0.07 0.08 0.09 0.09 0.08 0.09 0.07 0.06 0.07 0.07 0.08 0.09 0.09 0.07 0.07 0.07 0.09 0.11 0.13 0.15 0.13 0.10 0.09 0.07 0.07 0.08 0.11 0.06 0.04 0.07 0.07 0.05 0.03 0.03 0.02 0.02 0.03 0.02 0.02 0.02 0.02
0.08 0.08 0.08 0.09 0.07 0.06 0.06 0.07 0.05 0.05 0.05 0.07 0.07 0.09 0.10 0.11 0.11 0.08 0.09 0.11 0.11 0.15 0.15 0.09 0.07 0.08 0.08 0.09 0.08 0.06 0.04 0.05 0.05 0.04 0.04 0.04 0.04 0.03 0.03 0.03 0.03 0.03 0.03
0.06 0.08 0.08 0.07 0.05 0.05 0.05 0.04 0.04 0.04 0.05 0.05 0.07 0.12 0.12 0.12 0.13 0.11 0.10 0.11 0.11 0.14 0.13 0.09 0.07 0.07 0.07 0.08 0.09 0.08 0.04 0.03 0.04 0.05 0.04 0.04 0.04 0.04 0.05 0.05 0.06 0.07 0.07
0.05 0.07 0.08 0.08 0.07 0.06 0.06 0.05 0.04 0.05 0.06 0.06 0.08 0.10 0.11 0.13 0.12 0.12 0.12 0.11 0.11 0.13 0.15 0.12 0.08 0.08 0.07 0.07 0.10 0.09 0.08 0.09 0.05 0.05 0.06 0.04 0.03 0.03 0.03 0.03 0.03 0.04 0.04
0.07 0.08 0.08 0.08 0.08 0.06 0.06 0.06 0.06 0.07 0.09 0.08 0.08 0.09 0.10 0.11 0.11 0.13 0.11 0.10 0.10 0.12 0.15 0.14 0.11 0.10 0.11 0.11 0.14 0.11 0.12 0.13 0.10 0.08 0.09 0.08 0.06 0.04 0.04 0.04 0.03 0.03 0.02
0.06 0.07 0.08 0.08 0.07 0.07 0.05 0.07 0.07 0.08 0.10 0.10 0.09 0.09 0.09 0.09 0.10 0.10 0.07 0.09 0.10 0.12 0.12 0.11 0.10 0.10 0.09 0.11 0.12 0.13 0.15 0.15 0.14 0.12 0.11 0.07 0.08 0.07 0.05 0.04 0.04 0.05 0.05
0.07 0.07 0.06 0.06 0.06 0.05 0.06 0.07 0.08 0.09 0.11 0.11 0.08 0.08 0.07 0.08 0.08 0.08 0.06 0.05 0.07 0.08 0.09 0.10 0.10 0.09 0.08 0.09 0.12 0.13 0.14 0.14 0.12 0.11 0.12 0.09 0.08 0.08 0.07 0.06 0.07 0.07 0.06
0.06 0.06 0.07 0.07 0.08 0.07 0.07 0.07 0.06 0.06 0.08 0.08 0.06 0.06 0.05 0.05 0.07 0.04 0.04 0.04 0.04 0.04 0.05 0.06 0.07 0.07 0.07 0.08 0.11 0.11 0.12 0.12 0.11 0.11 0.12 0.10 0.10 0.09 0.07 0.08 0.11 0.09 0.06
0.09 0.09 0.09 0.09 0.09 0.07 0.06 0.04 0.04 0.04 0.05 0.05 0.04 0.04 0.04 0.04 0.04 0.03 0.05 0.05 0.03 0.03 0.03 0.04 0.04 0.05 0.06 0.07 0.09 0.11 0.13 0.15 0.15 0.15 0.16 0.14 0.13 0.13 0.11 0.10 0.10 0.09 0.08
0.08 0.07 0.08 0.08 0.07 0.06 0.06 0.04 0.04 0.04 0.05 0.06 0.05 0.05 0.05 0.05 0.05 0.04 0.06 0.06 0.04 0.03 0.03 0.03 0.03 0.03 0.03 0.05 0.06 0.08 0.10 0.13 0.13 0.13 0.13 0.13 0.13 0.12 0.12 0.11 0.09 0.09 0.08
0.06 0.07 0.06 0.05 0.05 0.05 0.06 0.05 0.05 0.04 0.06 0.07 0.07 0.06 0.05 0.04 0.05 0.04 0.05 0.04 0.04 0.03 0.04 0.04 0.03 0.03 0.03 0.04 0.05 0.05 0.07 0.08 0.09 0.09 0.09 0.09 0.09 0.10 0.09 0.07 0.06 0.07 0.07
MSLP
1015.83 1016.00 1016.09 1016.13 1016.15 1016.16 1016.18 1016.21 1016.26 1016.31 1016.37 1016.44 1016.53 1016.67 1016.87 1017.15 1017.50 1017.92 1018.37 1018.82 1019.24 1019.59 1019.86 1020.07 1020.23 1020.37 1020.50 1020.66 1020.84 1021.06 1021.28 1021.52 1021.74 1021.96 1022.16 1022.37 1022.57 1022.78 1022.99 1023.19 1023.38 1023.54 1023.67
1015.76 1015.92 1016.02 1016.08 1016.12 1016.16 1016.22 1016.31 1016.41 1016.53 1016.65 1016.77 1016.89 1017.04 1017.23 1017.46 1017.74 1018.08 1018.45 1018.83 1019.19 1019.53 1019.82 1020.06 1020.27 1020.45 1020.63 1020.80 1020.99 1021.18 1021.38 1021.58 1021.78 1021.98 1022.19 1022.40 1022.62 1022.85 1023.08 1023.30 1023.49 1023.66 1023.79
1015.66 1015.83 1015.95 1016.04 1016.13 1016.22 1016.34 1016.49 1016.66 1016.84 1017.02 1017.18 1017.34 1017.48 1017.63 1017.80 1018.00 1018.23 1018.50 1018.79 1019.09 1019.39 1019.67 1019.94 1020.19 1020.41 1020.63 1020.83 1021.03 1021.22 1021.40 1021.58 1021.76 1021.96 1022.16 1022.37 1022.60 1022.84 1023.09 1023.32 1023.52 1023.70 1023.85
1015.56 1015.76 1015.91 1016.05 1016.19 1016.35 1016.53 1016.75 1016.98 1017.21 1017.43 1017.63 1017.80 1017.93 1018.04 1018.15 1018.26 1018.39 1018.55 1018.74 1018.96 1019.20 1019.46 1019.73 1020.00 1020.26 1020.51 1020.75 1020.96 1021.16 1021.35 1021.53 1021.70 1021.89 1022.08 1022.30 1022.53 1022.77 1023.02 1023.25 1023.47 1023.66 1023.83
1015.48 1015.70 1015.91 1016.11 1016.31 1016.53 1016.77 1017.03 1017.31 1017.58 1017.83 1018.04 1018.21 1018.33 1018.41 1018.46 1018.50 1018.55 1018.61 1018.71 1018.85 1019.03 1019.25 1019.50 1019.77 1020.04 1020.32 1020.58 1020.82 1021.04 1021.24 1021.43 1021.61 1021.80 1021.99 1022.20 1022.42 1022.65 1022.89 1023.12 1023.33 1023.53 1023.71
1015.41 1015.67 1015.93 1016.19 1016.45 1016.72 1017.01 1017.30 1017.59 1017.87 1018.13 1018.35 1018.52 1018.64 1018.70 1018.73 1018.72 1018.71 1018.71 1018.74 1018.80 1018.92 1019.08 1019.29 1019.54 1019.81 1020.09 1020.37 1020.64 1020.89 1021.11 1021.32 1021.52 1021.70 1021.89 1022.09 1022.29 1022.50 1022.71 1022.92 1023.13 1023.33 1023.52
1015.32 1015.63 1015.94 1016.25 1016.56 1016.87 1017.18 1017.48 1017.77 1018.05 1018.30 1018.52 1018.69 1018.82 1018.90 1018.92 1018.92 1018.89 1018.85 1018.83 1018.83 1018.89 1018.99 1019.14 1019.35 1019.60 1019.87 1020.16 1020.44 1020.72 1020.97 1021.21 1021.42 1021.62 1021.80 1021.98 1022.16 1022.33 1022.51 1022.69 1022.87 1023.06 1023.26
1015.19 1015.53 1015.88 1016.23 1016.58 1016.92 1017.23 1017.53 1017.81 1018.07 1018.31 1018.53 1018.72 1018.87 1018.99 1019.05 1019.08 1019.06 1019.02 1018.98 1018.95 1018.94 1018.98 1019.08 1019.23 1019.43 1019.68 1019.96 1020.25 1020.55 1020.83 1021.09 1021.33 1021.54 1021.73 1021.89 1022.03 1022.17 1022.31 1022.45 1022.60 1022.78 1022.96
1014.97 1015.33 1015.71 1016.09 1016.46 1016.81 1017.13 1017.42 1017.69 1017.94 1018.17 1018.40 1018.62 1018.82 1018.99 1019.11 1019.20 1019.22 1019.21 1019.17 1019.11 1019.06 1019.04 1019.07 1019.16 1019.31 1019.52 1019.78 1020.07 1020.37 1020.68 1020.97 1021.23 1021.45 1021.64 1021.79 1021.91 1022.02 1022.12 1022.22 1022.34 1022.49 1022.65
1014.62 1014.99 1015.38 1015.79 1016.18 1016.54 1016.86 1017.16 1017.42 1017.67 1017.92 1018.17 1018.43 1018.68 1018.92 1019.12 1019.27 1019.35 1019.37 1019.34 1019.28 1019.19 1019.12 1019.09 1019.12 1019.21 1019.37 1019.60 1019.88 1020.19 1020.50 1020.82 1021.10 1021.34 1021.53 1021.68 1021.79 1021.87 1021.94 1022.01 1022.10 1022.22 1022.36
1014.14 1014.50 1014.90 1015.32 1015.73 1016.11 1016.46 1016.76 1017.05 1017.32 1017.59 1017.89 1018.19 1018.50 1018.80 1019.07 1019.28 1019.42 1019.48 1019.47 1019.40 1019.29 1019.18 1019.10 1019.07 1019.11 1019.23 1019.42 1019.67 1019.97 1020.30 1020.62 1020.91 1021.17 1021.38 1021.53 1021.64 1021.71 1021.76 1021.82 1021.88 1021.97 1022.09
1013.55 1013.90 1014.30 1014.73 1015.16 1015.57 1015.95 1016.29 1016.61 1016.93 1017.24 1017.58 1017.93 1018.29 1018.64 1018.96 1019.22 1019.40 1019.49 1019.50 1019.43 1019.32 1019.19 1019.07 1019.00 1019.00 1019.08 1019.24 1019.46 1019.74 1020.06 1020.38 1020.68 1020.95 1021.17 1021.34 1021.46 1021.53 1021.59 1021.63 1021.69 1021.76 1021.85
1012.91 1013.25 1013.65 1014.09 1014.55 1014.99 1015.41 1015.80 1016.17 1016.53 1016.89 1017.27 1017.66 1018.05 1018.44 1018.78 1019.07 1019.28 1019.40 1019.42 1019.37 1019.27 1019.14 1019.01 1018.93 1018.90 1018.94 1019.07 1019.26 1019.51 1019.80 1020.10 1020.40 1020.67 1020.90 1021.09 1021.23 1021.33 1021.40 1021.45 1021.50 1021.56 1021.62
1012.30 1012.63 1013.03 1013.48 1013.95 1014.42 1014.88 1015.32 1015.74 1016.14 1016.55 1016.96 1017.37 1017.78 1018.18 1018.54 1018.84 1019.06 1019.20 1019.25 1019.23 1019.16 1019.05 1018.94 1018.86 1018.82 1018.85 1018.94 1019.09 1019.30 1019.54 1019.81 1020.09 1020.35 1020.59 1020.80 1020.96 1021.09 1021.19 1021.26 1021.31 1021.36 1021.41
1011.78 1012.10 1012.50 1012.95 1013.43 1013.92 1014.41 1014.88 1015.33 1015.77 1016.20 1016.63 1017.05 1017.46 1017.86 1018.22 1018.52 1018.76 1018.92 1019.01 1019.04 1019.01 1018.96 1018.89 1018.83 1018.80 1018.81 1018.87 1018.97 1019.12 1019.31 1019.53 1019.77 1020.01 1020.24 1020.46 1020.65 1020.82 1020.95 1021.05 1021.12 1021.17 1021.21
1011.39 1011.71 1012.10 1012.55 1013.02 1013.51 1014.00 1014.48 1014.94 1015.39 1015.82 1016.25 1016.67 1017.07 1017.46 1017.82 1018.13 1018.39 1018.60 1018.74 1018.84 1018.88 1018.90 1018.89 1018.87 1018.86 1018.86 1018.88 1018.93 1019.01 1019.12 1019.27 1019.45 1019.66 1019.87 1020.10 1020.31 1020.51 1020.68 1020.81 1020.91 1020.98 1021.02
1011.14 1011.46 1011.83 1012.25 1012.70 1013.16 1013.63 1014.08 1014.52 1014.95 1015.38 1015.79 1016.20 1016.60 1016.99 1017.36 1017.70 1018.00 1018.27 1018.49 1018.66 1018.79 1018.89 1018.95 1018.97 1018.98 1018.97 1018.95 1018.93 1018.93 1018.97 1019.04 1019.15 1019.30 1019.50 1019.72 1019.95 1020.18 1020.39 1020.56 1020.70 1020.79 1020.84
1010.96 1011.28 1011.63 1012.01 1012.41 1012.82 1013.23 1013.64 1014.04 1014.44 1014.84 1015.24 1015.64 1016.05 1016.46 1016.87 1017.25 1017.62 1017.96 1018.27 1018.53 1018.76 1018.93 1019.05 1019.12 1019.13 1019.10 1019.04 1018.96 1018.88 1018.83 1018.82 1018.86 1018.97 1019.14 1019.35 1019.59 1019.85 1020.09 1020.31 1020.48 1020.60 1020.68
1010.76 1011.07 1011.40 1011.74 1012.08 1012.43 1012.77 1013.11 1013.47 1013.83 1014.20 1014.60 1015.02 1015.46 1015.92 1016.38 1016.84 1017.28 1017.71 1018.10 1018.46 1018.76 1019.00 1019.17 1019.26 1019.27 1019.22 1019.11 1018.97 1018.83 1018.70 1018.62 1018.60 1018.67 1018.81 1019.01 1019.27 1019.54 1019.81 1020.06 1020.28 1020.44 1020.55
1010.46 1010.76 1011.06 1011.36 1011.64 1011.92 1012.20 1012.49 1012.79 1013.13 1013.50 1013.92 1014.38 1014.87 1015.40 1015.94 1016.48 1017.01 1017.52 1018.00 1018.42 1018.77 1019.05 1019.24 1019.34 1019.34 1019.26 1019.12 1018.93 1018.74 1018.56 1018.44 1018.39 1018.42 1018.55 1018.74 1019.00 1019.29 1019.58 1019.86 1020.10 1020.30 1020.45
1010.01 1010.30 1010.58 1010.83 1011.07 1011.30 1011.53 1011.78 1012.06 1012.40 1012.79 1013.25 1013.77 1014.35 1014.96 1015.59 1016.22 1016.83 1017.41 1017.93 1018.39 1018.77 1019.05 1019.24 1019.32 1019.31 1019.21 1019.04 1018.84 1018.62 1018.43 1018.30 1018.24 1018.27 1018.39 1018.58 1018.84 1019.13 1019.42 1019.71 1019.96 1020.18 1020.36
1009.41 1009.69 1009.95 1010.18 1010.40 1010.60 1010.81 1011.05 1011.34 1011.70 1012.14 1012.67 1013.27 1013.94 1014.64 1015.35 1016.06 1016.73 1017.35 1017.89 1018.35 1018.71 1018.98 1019.14 1019.20 1019.16 1019.05 1018.89 1018.70 1018.51 1018.34 1018.23 1018.19 1018.24 1018.37 1018.56 1018.80 1019.08 1019.36 1019.63 1019.87 1020.08 1020.27
1008.72 1009.00 1009.26 1009.49 1009.70 1009.90 1010.12 1010.38 1010.71 1011.12 1011.63 1012.24 1012.93 1013.68 1014.47 1015.25 1016.01 1016.71 1017.33 1017.86 1018.28 1018.60 1018.82 1018.94 1018.97 1018.93 1018.83 1018.70 1018.56 1018.43 1018.33 1018.28 1018.29 1018.37 1018.51 1018.70 1018.92 1019.16 1019.40 1019.62 1019.82 1020.00 1020.17
1008.06 1008.34 1008.61 1008.85 1009.08 1009.31 1009.57 1009.88 1010.26 1010.74 1011.32 1012.01 1012.78 1013.60 1014.45 1015.27 1016.05 1016.74 1017.33 1017.81 1018.18 1018.43 1018.59 1018.67 1018.68 1018.65 1018.59 1018.52 1018.46 1018.43 1018.43 1018.47 1018.55 1018.68 1018.83 1019.01 1019.19 1019.37 1019.54 1019.68 1019.82 1019.94 1020.06
1007.57 1007.86 1008.14 1008.41 1008.68 1008.95 1009.25 1009.61 1010.05 1010.59 1011.24 1011.99 1012.81 1013.67 1014.54 1015.37 1016.14 1016.79 1017.33 1017.74 1018.03 1018.22 1018.33 1018.38 1018.39 1018.39 1018.39 1018.42 1018.47 1018.55 1018.66 1018.80 1018.96 1019.13 1019.29 1019.44 1019.57 1019.67 1019.74 1019.79 1019.83 1019.88 1019.93
1007.35 1007.64 1007.95 1008.25 1008.54 1008.85 1009.20 1009.60 1010.09 1010.67 1011.35 1012.13 1012.97 1013.84 1014.69 1015.50 1016.22 1016.82 1017.29 1017.63 1017.86 1018.00 1018.07 1018.11 1018.15 1018.20 1018.29 1018.42 1018.59 1018.79 1019.02 1019.25 1019.48 1019.67 1019.82 1019.93 1019.99 1020.00 1019.97 1019.92 1019.86 1019.82 1019.81
Thickness
5764 5763 5761 5761 5760 5759 5758 5758 5758 5757 5757 5757 5756 5756 5754 5752 5750 5745 5739 5737 5735 5733 5731 5729 5727 5725 5723 5722 5721 5719 5718 5717 5716 5715 5714 5713 5712 5710 5709 5708 5707 5706 5706
5764 5762 5761 5761 5760 5760 5759 5758 5757 5757 5756 5756 5755 5755 5754 5752 5750 5746 5741 5738 5736 5734 5732 5730 5728 5727 5725 5723 5721 5720 5719 5717 5716 5715 5714 5713 5711 5710 5709 5708 5707 5706 5705
5764 5762 5761 5760 5760 5759 5759 5758 5757 5756 5756 5756 5755 5754 5753 5752 5750 5747 5744 5740 5737 5735 5733 5732 5730 5728 5726 5724 5723 5721 5719 5718 5716 5715 5713 5712 5711 5710 5709 5708 5707 5706 5705
5763 5762 5761 5761 5760 5760 5759 5758 5757 5755 5755 5754 5753 5754 5753 5751 5750 5749 5747 5744 5741 5738 5735 5733 5731 5729 5727 5726 5724 5722 5720 5718 5717 5715 5714 5713 5711 5710 5709 5708 5707 5706 5705
5764 5762 5761 5760 5760 5759 5759 5758 5756 5755 5753 5753 5753 5753 5753 5752 5751 5751 5749 5747 5744 5742 5739 5735 5733 5731 5729 5727 5725 5724 5722 5720 5718 5716 5714 5713 5712 5711 5709 5708 5707 5706 5705
5764 5763 5761 5760 5760 5759 5757 5756 5754 5754 5753 5753 5754 5754 5754 5753 5752 5752 5751 5750 5748 5745 5742 5739 5735 5733 5731 5729 5727 5725 5724 5722 5720 5718 5716 5714 5713 5711 5710 5709 5707 5706 5705
5765 5763 5762 5761 5759 5758 5756 5756 5754 5752 5752 5754 5750 5748 5751 5754 5754 5753 5753 5752 5751 5749 5746 5743 5739 5737 5734 5731 5729 5727 5726 5724 5722 5720 5717 5716 5714 5713 5711 5710 5708 5707 5705
5766 5765 5762 5761 5760 5757 5756 5755 5754 5751 5751 5753 5748 5742 5739 5743 5750 5756 5754 5753 5752 5751 5748 5746 5744 5741 5739 5735 5732 5730 5728 5726 5724 5722 5719 5718 5716 5714 5712 5711 5709 5708 5706
5766 5765 5763 5762 5760 5758 5756 5755 5754 5751 5748 5751 5752 5745 5736 5733 5741 5749 5754 5754 5753 5752 5751 5749 5747 5744 5742 5739 5736 5733 5730 5728 5726 5723 5721 5719 5717 5715 5714 5712 5710 5709 5707
5767 5766 5764 5763 5761 5760 5758 5756 5755 5753 5750 5748 5750 5751 5748 5746 5738 5737 5746 5751 5753 5751 5751 5751 5750 5747 5745 5743 5740 5737 5734 5731 5728 5725 5723 5721 5719 5717 5715 5713 5711 5710 5708
5768 5766 5765 5763 5761 5760 5758 5757 5755 5754 5752 5749 5748 5749 5748 5747 5746 5738 5735 5742 5747 5751 5752 5751 5750 5749 5747 5745 5742 5740 5737 5733 5730 5727 5724 5722 5720 5718 5716 5715 5713 5711 5709
5768 5767 5766 5764 5761 5760 5758 5757 5755 5753 5752 5751 5750 5750 5747 5744 5743 5741 5737 5739 5741 5748 5752 5753 5752 5751 5750 5747 5745 5742 5739 5735 5732 5729 5726 5723 5721 5719 5717 5716 5714 5712 5710
5768 5767 5767 5764 5762 5760 5759 5757 5755 5753 5752 5750 5750 5749 5749 5749 5748 5746 5741 5740 5741 5746 5749 5751 5752 5752 5750 5748 5745 5743 5740 5736 5733 5729 5727 5724 5722 5720 5718 5716 5714 5712 5710
5770 5770 5767 5765 5763 5761 5760 5757 5756 5754 5753 5751 5751 5750 5749 5749 5750 5748 5744 5740 5736 5738 5742 5745 5750 5751 5749 5747 5745 5742 5739 5736 5733 5730 5727 5724 5722 5720 5718 5716 5714 5712 5709
5772 5770 5767 5765 5763 5761 5760 5758 5755 5754 5753 5752 5751 5750 5749 5749 5750 5750 5749 5745 5737 5730 5732 5739 5743 5748 5747 5745 5742 5739 5738 5735 5733 5729 5726 5724 5721 5719 5717 5715 5713 5711 5708
5771 5768 5767 5764 5762 5761 5759 5757 5755 5753 5752 5751 5750 5749 5748 5748 5748 5748 5747 5746 5744 5736 5731 5738 5740 5743 5744 5743 5740 5738 5736 5735 5732 5729 5726 5723 5720 5718 5716 5714 5712 5710 5707
5770 5768 5766 5763 5761 5759 5758 5756 5754 5753 5750 5749 5748 5747 5746 5746 5744 5744 5745 5743 5741 5737 5731 5734 5738 5740 5739 5737 5736 5735 5733 5731 5730 5728 5725 5722 5719 5717 5714 5712 5709 5707 5705
5770 5768 5765 5763 5761 5759 5757 5755 5752 5752 5749 5747 5746 5745 5744 5744 5741 5740 5739 5738 5737 5736 5731 5728 5732 5733 5733 5733 5732 5731 5730 5729 5727 5726 5723 5720 5717 5714 5711 5709 5707 5704 5702
5769 5767 5764 5761 5759 5758 5756 5754 5752 5750 5748 5746 5745 5743 5741 5740 5737 5736 5735 5734 5733 5733 5730 5727 5726 5728 5728 5729 5728 5727 5726 5725 5724 5722 5719 5716 5713 5710 5707 5705 5703 5700 5698
5768 5765 5762 5760 5758 5756 5754 5752 5750 5747 5746 5744 5743 5741 5739 5736 5734 5733 5732 5730 5729 5727 5726 5723 5721 5721 5722 5723 5722 5719 5717 5718 5717 5717 5715 5712 5709 5706 5704 5701 5698 5695 5692
5766 5763 5760 5757 5755 5753 5750 5748 5746 5745 5742 5740 5738 5737 5735 5733 5731 5729 5728 5726 5725 5722 5720 5717 5715 5714 5714 5713 5712 5713 5711 5711 5711 5711 5708 5706 5704 5700 5698 5695 5692 5689 5686
5763 5760 5757 5754 5751 5748 5745 5743 5742 5741 5738 5736 5733 5732 5731 5730 5727 5725 5723 5722 5720 5716 5713 5710 5708 5706 5705 5706 5707 5707 5704 5702 5700 5704 5701 5699 5697 5694 5692 5689 5687 5684 5680
5758 5755 5753 5750 5745 5742 5740 5739 5737 5736 5734 5731 5729 5727 5726 5725 5722 5720 5718 5716 5714 5711 5708 5705 5701 5700 5699 5700 5700 5699 5698 5696 5693 5695 5693 5690 5689 5686 5685 5682 5679 5676 5673
5753 5750 5748 5745 5741 5737 5735 5734 5732 5731 5729 5726 5724 5722 5719 5716 5715 5712 5711 5709 5707 5705 5703 5700 5698 5696 5695 5695 5694 5693 5691 5690 5688 5687 5685 5679 5679 5676 5675 5672 5670 5667 5663
5748 5745 5742 5739 5736 5732 5729 5728 5727 5726 5723 5720 5717 5715 5712 5709 5707 5706 5704 5702 5699 5698 5697 5695 5693 5691 5689 5688 5687 5685 5682 5679 5676 5675 5675 5670 5668 5666 5665 5662 5660 5657 5654
5743 5740 5736 5733 5730 5726 5723 5722 5721 5721 5717 5714 5710 5708 5705 5702 5700 5699 5697 5694 5691 5690 5689 5688 5686 5685 5683 5681 5679 5676 5673 5669 5666 5664 5663 5660 5657 5654 5651 5651 5649 5646 5643